Date,TemperatureHighF,TemperatureAvgF,TemperatureLowF,DewpointHighF,DewpointAvgF,DewpointLowF,HumidityHigh,HumidityAvg,HumidityLow,PressureMaxIn,PressureMinIn,WindSpeedMaxMPH,WindSpeedAvgMPH,GustSpeedMaxMPH,PrecipitationSumIn
2013-4-1,38,31,25,23,18,14,71,58,45,30.28,29.99,14,4,17,0.00
2013-4-2,42,31,22,21,18,12,82,59,34,30.39,30.28,13,3,18,0.00
2013-4-3,47,33,19,24,18,13,86,58,30,30.52,30.35,6,1,9,0.00
2013-4-4,58,43,26,40,28,19,78,58,37,30.35,30.02,13,2,15,0.00
2013-4-5,51,41,29,31,27,23,84,60,36,30.28,30.10,10,2,11,0.00
2013-4-6,67,49,35,50,36,20,86,62,38,30.14,29.60,16,4,20,0.07
2013-4-7,63,48,40,45,39,35,85,72,48,29.97,29.66,13,3,20,0.00
2013-4-8,68,52,39,54,46,34,92,81,61,29.97,29.57,11,3,16,0.86
2013-4-9,48,43,39,46,41,36,93,91,89,29.99,29.85,14,4,19,0.79
2013-4-10,40,37,33,38,35,31,92,91,89,30.10,29.84,17,5,18,1.28
2013-4-11,43,39,37,42,37,35,93,92,89,29.90,29.59,18,5,23,0.35
2013-4-12,41,37,34,37,33,30,93,85,76,29.88,29.59,14,5,17,0.02
2013-4-13,43,37,32,32,29,26,82,73,61,30.02,29.88,14,6,21,0.00
2013-4-14,67,49,34,53,40,28,83,71,58,30.03,29.57,13,4,18,0.01
2013-4-15,64,50,40,54,44,36,93,81,39,30.02,29.58,23,3,23,0.88
2013-4-16,56,44,33,39,35,30,90,70,43,30.30,30.00,9,2,16,0.00
2013-4-17,45,42,39,43,38,33,93,86,71,30.32,29.82,17,4,19,1.49
2013-4-18,61,48,36,58,46,31,93,91,80,29.89,29.40,21,4,24,1.77
2013-4-19,38,35,34,32,29,26,87,79,66,30.00,29.49,21,10,26,0.00
2013-4-20,47,36,27,28,23,17,83,62,39,30.42,30.01,9,1,12,0.00
2013-4-21,56,44,32,39,32,24,79,64,50,30.53,30.29,13,3,18,0.00
2013-4-22,68,55,43,47,40,34,77,58,39,30.32,30.02,12,2,14,0.00
2013-4-23,56,43,36,47,39,32,91,86,64,30.04,29.93,10,2,14,0.41
2013-4-24,52,42,34,33,29,26,81,62,37,30.11,30.02,14,3,16,0.00
2013-4-25,52,43,36,37,32,26,88,66,40,30.34,30.07,14,4,18,0.01
2013-4-26,69,54,38,50,40,28,74,60,45,30.33,30.20,15,3,17,0.00
2013-4-27,66,57,46,50,46,43,90,69,51,30.28,30.01,6,1,11,0.00
2013-4-28,71,58,47,54,48,44,90,72,49,30.01,29.80,6,1,7,0.00
2013-4-29,78,63,49,59,53,47,92,72,46,29.90,29.70,9,2,20,0.00
2013-4-30,87,73,61,63,56,52,88,60,31,29.88,29.70,12,3,18,0.00